Starlink 35653

operational
NORAD ID: 66122 Int'l Des: 2025-237 Owner: SPXS Country: US Constellation: starlink
LEOCIRCULAR

Über Starlink 35653

Beschreibung wird geladen...

Live-Position

3D-Globus wird geladen...

Nächste Überflüge

Höhenverlauf

Altitude vs Time

uPlot chart will show altitude changes over time

Zweizeiliger Elementsatz

1 66122C 25237J 25298.72756944 -.01158900 00000+0 -19722-2 0 2986
2 66122 53.1552 319.2344 0000693 75.1483 144.1542 16.03030184 10
Epoch: 25. Okt. 2025 • Age: 159 hours

Aktueller Status

Höhe 311.3 km
Geschwindigkeit 7.72 km/s
Subsatellitenpunkt -53.24°S, 67.31°W
Startdatum 22. Okt. 2025
Alter 9 days
Typ internet

Technische Details

Klassifizierung Payload
Masse 575.00 kg
Trockenmasse 530.00 kg
Gesamtmasse 575.00 kg
Länge 0.30 m
Durchmesser 4.10 m
Spannweite 29.00 m
Form Box + pan
Hersteller SPXS
Bus-Typ Starlink V2MO
Phasenstatus In Orbit
Besitzer/Staat SPXS/US

Große Konstellationen

Loading constellations...